Wahpeton, MN

5:23 AM CDT on April 24, 2017 (GMT -0500)
Stern

Weather History for KBWP - March, 2013

Change the Weather History Date:

Sunday, March 31, 2013

  Actual Average (KFFM) Record (KFFM)
Temperature  
Mean Temperature 24 °F -  
Max Temperature 32 °F 44 °F 78 °F (1963)
Min Temperature 17 °F 25 °F -3 °F (1969)
Degree Days  
Heating Degree Days 40    
Moisture  
Dew Point 20 °F    
Average Humidity 75    
Maximum Humidity 93    
Minimum Humidity 59    
Precipitation  
Precipitation 0.00 in - - ()
Sea Level Pressure  
Sea Level Pressure 30.03 in    
Wind  
Wind Speed 16 mph (NNW)    
Max Wind Speed 24 mph    
Max Gust Speed 34 mph    
Visibility 10 miles    
Events      
Averages and records for this station are not official NWS values.
T = Trace of Precipitation, MM = Missing Value Source: NWS Daily Summary

Daily Weather History Graph

Daily Weather History Graph

Search for Another Location

Airport or City:

Trip Planner

Search our weather history database for the weather conditions in past years. The results will help you decide how hot, cold, wet, or windy it might be!

Date:

Astronomy

Mar. 31, 2013 Rise Set
Actual Time 7:07 AM CDT 7:54 PM CDT
Civil Twilight 6:37 AM CDT 8:24 PM CDT
Nautical Twilight 6:01 AM CDT 9:00 PM CDT
Astronomical Twilight 5:23 AM CDT 9:38 PM CDT
Moon 12:15 AM CDT (3/31) 9:41 AM CDT (3/31)
Length of Visible Light 13h 47m
Length of Day
12h 46m
Waning Gibbous, 77% of the Moon is Illuminated
Mar 31
Waning Gibbous
Apr 2
Last Quarter
Apr 10
New
Apr 18
First Quarter
Apr 25
Full

Hourly Weather History & Observations

Time (CDT) Temp. Windchill Dew Point Humidity Pressure Visibility Wind Dir Wind Speed Gust Speed Precip Events Conditions
12:15 AM 28.4 °F 19.7 °F 26.6 °F 93% 29.91 in 4.0 mi West 9.2 mph - N/A   Clear
12:35 AM 28.4 °F 19.7 °F 26.6 °F 93% 29.91 in 5.0 mi West 9.2 mph - N/A   Clear
12:55 AM 28.4 °F 18.5 °F 26.6 °F 93% 29.91 in 7.0 mi West 11.5 mph - N/A   Scattered Clouds
1:15 AM 30.2 °F 21.9 °F 28.4 °F 93% 29.90 in 7.0 mi West 9.2 mph - N/A   Mostly Cloudy
1:35 AM 32.0 °F 22.5 °F 30.2 °F 93% 29.89 in 7.0 mi West 12.7 mph - N/A   Overcast
1:55 AM 32.0 °F 21.6 °F 30.2 °F 93% 29.89 in 7.0 mi West 15.0 mph - N/A   Overcast
2:15 AM 32.0 °F 22.1 °F 30.2 °F 93% 29.88 in 7.0 mi West 13.8 mph - N/A   Overcast
2:35 AM 32.0 °F 23.0 °F 28.4 °F 87% 29.88 in 7.0 mi West 11.5 mph - N/A   Mostly Cloudy
2:55 AM 32.0 °F 20.8 °F 28.4 °F 87% 29.87 in 10.0 mi WNW 17.3 mph - N/A   Overcast
3:15 AM 32.0 °F 21.6 °F 28.4 °F 87% 29.87 in 10.0 mi WNW 15.0 mph - N/A   Overcast
3:35 AM 32.0 °F 22.5 °F 28.4 °F 87% 29.87 in 10.0 mi WNW 12.7 mph - N/A   Overcast
3:55 AM 32.0 °F 21.2 °F 28.4 °F 87% 29.87 in 10.0 mi NW 16.1 mph - N/A   Overcast
4:15 AM 32.0 °F 20.8 °F 28.4 °F 87% 29.87 in 10.0 mi WNW 17.3 mph - N/A   Overcast
4:35 AM 32.0 °F 20.1 °F 28.4 °F 87% 29.87 in 10.0 mi NW 19.6 mph 25.3 mph N/A   Overcast
4:55 AM 32.0 °F 18.9 °F 28.4 °F 87% 29.86 in 10.0 mi NW 24.2 mph - N/A   Overcast
5:15 AM 32.0 °F 19.5 °F 28.4 °F 87% 29.87 in 10.0 mi NW 21.9 mph 27.6 mph N/A   Overcast
5:35 AM 32.0 °F 19.5 °F 28.4 °F 87% 29.87 in 10.0 mi NNW 21.9 mph 29.9 mph N/A   Overcast
5:55 AM 32.0 °F 19.2 °F 26.6 °F 80% 29.89 in 10.0 mi NNW 23.0 mph 34.5 mph N/A   Overcast
6:15 AM 30.2 °F 17.4 °F 26.6 °F 86% 29.90 in 10.0 mi NNW 20.7 mph 28.8 mph N/A   Overcast
6:35 AM 30.2 °F 18.1 °F 26.6 °F 86% 29.91 in 10.0 mi NNW 18.4 mph 26.5 mph N/A   Overcast
6:55 AM 30.2 °F 17.1 °F 24.8 °F 80% 29.92 in 10.0 mi NNW 21.9 mph 27.6 mph N/A   Mostly Cloudy
7:15 AM 28.4 °F 15.1 °F 23.0 °F 80% 29.94 in 10.0 mi NNW 20.7 mph 27.6 mph N/A   Scattered Clouds
7:55 AM 28.4 °F 16.2 °F 23.0 °F 80% 29.96 in 10.0 mi NNW 17.3 mph - N/A   Scattered Clouds
8:15 AM 28.4 °F 17.0 °F 23.0 °F 80% 29.97 in 10.0 mi NNW 15.0 mph 19.6 mph N/A   Overcast
8:35 AM 28.4 °F 15.4 °F 23.0 °F 80% 29.98 in 10.0 mi NNW 19.6 mph 26.5 mph N/A   Overcast
8:55 AM 26.6 °F 13.1 °F 21.2 °F 80% 29.99 in 10.0 mi NNW 19.6 mph 27.6 mph N/A   Mostly Cloudy
9:15 AM 28.4 °F 15.4 °F 21.2 °F 74% 30.00 in 10.0 mi NNW 19.6 mph - N/A   Clear
9:55 AM 28.4 °F 14.4 °F 19.4 °F 69% 30.02 in 10.0 mi NNW 23.0 mph 28.8 mph N/A   Scattered Clouds
10:15 AM 28.4 °F 15.4 °F 17.6 °F 64% 30.02 in 10.0 mi North 19.6 mph 29.9 mph N/A   Clear
10:35 AM 28.4 °F 16.2 °F 17.6 °F 64% 30.03 in 10.0 mi NNW 17.3 mph 32.2 mph N/A   Clear
10:55 AM 28.4 °F 14.1 °F 15.8 °F 59% 30.04 in 10.0 mi NNW 24.2 mph 31.1 mph N/A   Scattered Clouds
11:15 AM 28.4 °F 14.7 °F 15.8 °F 59% 30.04 in 10.0 mi NNW 21.9 mph 27.6 mph N/A   Clear
11:55 AM 28.4 °F 15.1 °F 17.6 °F 64% 30.05 in 10.0 mi NNW 20.7 mph 29.9 mph N/A   Clear
12:15 PM 28.4 °F 14.7 °F 17.6 °F 64% 30.05 in 10.0 mi NNW 21.9 mph 34.5 mph N/A   Scattered Clouds
12:35 PM 28.4 °F 14.1 °F 17.6 °F 64% 30.06 in 10.0 mi NNW 24.2 mph 29.9 mph N/A   Clear
12:55 PM 28.4 °F 14.7 °F 17.6 °F 64% 30.06 in 10.0 mi NNW 21.9 mph 29.9 mph N/A   Mostly Cloudy
1:15 PM 28.4 °F 15.1 °F 17.6 °F 64% 30.06 in 10.0 mi NNW 20.7 mph 28.8 mph N/A   Overcast
1:35 PM 28.4 °F 14.1 °F 17.6 °F 64% 30.07 in 10.0 mi North 24.2 mph 31.1 mph N/A   Overcast
1:55 PM 26.6 °F 12.7 °F 17.6 °F 69% 30.08 in 10.0 mi NNW 20.7 mph 27.6 mph N/A   Overcast
2:15 PM 28.4 °F 16.6 °F 17.6 °F 64% 30.08 in 10.0 mi NNW 16.1 mph 27.6 mph N/A   Overcast
2:35 PM 28.4 °F 14.1 °F 17.6 °F 64% 30.08 in 10.0 mi NNW 24.2 mph 28.8 mph N/A   Overcast
2:55 PM 28.4 °F 16.6 °F 17.6 °F 64% 30.08 in 10.0 mi North 16.1 mph 26.5 mph N/A   Overcast
3:15 PM 28.4 °F 15.1 °F 15.8 °F 59% 30.09 in 10.0 mi North 20.7 mph 26.5 mph N/A   Mostly Cloudy
3:35 PM 28.4 °F 15.8 °F 17.6 °F 64% 30.09 in 10.0 mi NNW 18.4 mph 27.6 mph N/A   Mostly Cloudy
3:55 PM 26.6 °F 12.0 °F 15.8 °F 64% 30.09 in 10.0 mi NNW 23.0 mph - N/A   Scattered Clouds
4:15 PM 26.6 °F 12.7 °F 15.8 °F 64% 30.10 in 10.0 mi North 20.7 mph 26.5 mph N/A   Scattered Clouds
4:55 PM 26.6 °F 12.0 °F 15.8 °F 64% 30.11 in 10.0 mi NNW 23.0 mph 28.8 mph N/A   Overcast
5:15 PM 26.6 °F 13.8 °F 15.8 °F 64% 30.12 in 10.0 mi NNW 17.3 mph 28.8 mph N/A   Overcast
5:55 PM 26.6 °F 13.4 °F 15.8 °F 64% 30.13 in 10.0 mi NNW 18.4 mph 24.2 mph N/A   Mostly Cloudy
6:15 PM 26.6 °F 14.7 °F 14.0 °F 59% 30.14 in 10.0 mi NNW 15.0 mph 21.9 mph N/A   Mostly Cloudy
6:35 PM 24.8 °F 11.9 °F 15.8 °F 69% 30.14 in 10.0 mi NNW 16.1 mph 19.6 mph N/A   Overcast
6:55 PM 26.6 °F 14.3 °F 17.6 °F 69% 30.15 in 10.0 mi NNW 16.1 mph - N/A   Overcast
7:15 PM 24.8 °F 11.5 °F 17.6 °F 74% 30.15 in 10.0 mi North 17.3 mph 25.3 mph N/A   Overcast
7:35 PM 24.8 °F 12.4 °F 14.0 °F 64% 30.16 in 10.0 mi NNW 15.0 mph 25.3 mph N/A   Mostly Cloudy
7:55 PM 23.0 °F 9.6 °F 14.0 °F 68% 30.16 in 10.0 mi NNW 16.1 mph 23.0 mph N/A   Scattered Clouds
8:15 PM 23.0 °F 11.1 °F 14.0 °F 68% 30.17 in 10.0 mi NNW 12.7 mph - N/A   Mostly Cloudy
8:35 PM 21.2 °F 10.1 °F 14.0 °F 74% 30.17 in 10.0 mi NNW 10.4 mph 17.3 mph N/A   Scattered Clouds
8:55 PM 21.2 °F 8.9 °F 14.0 °F 74% 30.18 in 10.0 mi NNW 12.7 mph 18.4 mph N/A   Clear
9:15 PM 21.2 °F 9.5 °F 14.0 °F 74% 30.19 in 10.0 mi NNW 11.5 mph - N/A   Clear
9:35 PM 21.2 °F 8.9 °F 14.0 °F 74% 30.20 in 10.0 mi NNW 12.7 mph 18.4 mph N/A   Clear
9:55 PM 21.2 °F 9.5 °F 12.2 °F 68% 30.21 in 10.0 mi NNW 11.5 mph - N/A   Clear
10:15 PM 19.4 °F 8.6 °F 12.2 °F 74% 30.21 in 10.0 mi NNW 9.2 mph - N/A   Clear
10:35 PM 19.4 °F 7.9 °F 12.2 °F 74% 30.22 in 10.0 mi NNW 10.4 mph - N/A   Clear
10:55 PM 19.4 °F 9.5 °F 12.2 °F 74% 30.22 in 10.0 mi NNW 8.1 mph - N/A   Clear
11:15 PM 17.6 °F 7.3 °F 12.2 °F 79% 30.22 in 10.0 mi NNW 8.1 mph - N/A   Clear
11:35 PM 17.6 °F 7.3 °F 12.2 °F 79% 30.22 in 10.0 mi NNW 8.1 mph - N/A   Clear
11:55 PM 17.6 °F 6.4 °F 12.2 °F 79% 30.22 in 10.0 mi NNW 9.2 mph - N/A   Clear